Weather History for North Bend, OR

Change the Weather History Date:

Monday, December 31, 2012

  Actual Average Record
Temperature  
Mean Temperature 40 °F 45 °F  
Max Temperature 46 °F 51 °F 66 °F (1996)
Min Temperature 34 °F 40 °F 22 °F (1918)
Degree Days  
Heating Degree Days 25 20  
Month to date heating degree days 589 613  
Since 1 July heating degree days 1875 2061  
Cooling Degree Days 0 0  
Month to date cooling degree days 0 0  
Year to date cooling degree days 1 2  
Moisture  
Dew Point 39 °F    
Average Humidity 94    
Maximum Humidity 100    
Minimum Humidity 82    
Precipitation  
Precipitation 0.01 in 0.34 in 2.06 in (2009)
Month to date precipitation 11.40 11.13  
Year to date precipitation 54.90 64.91  
Sea Level Pressure  
Sea Level Pressure 30.27 in    
Wind  
Wind Speed 7 mph (SE)    
Max Wind Speed 9 mph    
Max Gust Speed -    
Visibility 10 miles    
Events      
T = Trace of Precipitation, MM = Missing Value Source: NWS Daily Summary

Daily Weather History Graph

Daily Weather History Graph

Search for Another Location

Airport:

Trip Planner

Search our weather history database for the weather conditions in past years. The results will help you decide how hot, cold, wet, or windy it might be!

Date:

Astronomy

Dec. 31, 2012 Rise Set
Actual Time 7:49 AM PST 4:51 PM PST
Civil Twilight 7:17 AM PST 5:23 PM PST
Nautical Twilight 6:41 AM PST 5:59 PM PST
Astronomical Twilight 6:06 AM PST 6:34 PM PST
Moon 8:34 PM PST (12/31) 9:28 AM PST (12/31)
Length of Visible Light 10h 06m
Length of Day
9h 01m
Waning Gibbous, 89% of the Moon is Illuminated
Dec 31
Waning Gibbous
Jan 4
Last Quarter
Jan 11
New
Jan 18
First Quarter
Jan 26
Full

Hourly Weather History & Observations

Time (PST) Temp. Windchill Dew Point Humidity Pressure Visibility Wind Dir Wind Speed Gust Speed Precip Events Conditions
12:15 AM 33.8 °F 27.0 °F 32.0 °F 93% 30.27 in 10.0 mi SE 8.1 mph - N/A   Clear
12:35 AM 33.8 °F 27.0 °F 33.8 °F 100% 30.26 in 10.0 mi SE 8.1 mph - N/A   Clear
12:55 AM 35.6 °F 29.9 °F 35.6 °F 100% 30.26 in 10.0 mi SE 6.9 mph - N/A   Clear
1:15 AM 35.6 °F 29.2 °F 35.6 °F 100% 30.26 in 10.0 mi SSE 8.1 mph - N/A   Clear
1:35 AM 35.6 °F 29.9 °F 33.8 °F 93% 30.26 in 10.0 mi SE 6.9 mph - N/A   Clear
1:55 AM 35.6 °F 30.7 °F 35.6 °F 100% 30.26 in 10.0 mi SSE 5.8 mph - N/A   Clear
2:15 AM 35.6 °F 30.7 °F 33.8 °F 93% 30.26 in 10.0 mi SSE 5.8 mph - N/A   Clear
2:35 AM 33.8 °F 27.0 °F 32.0 °F 93% 30.26 in 10.0 mi SSE 8.1 mph - N/A   Clear
2:55 AM 35.6 °F 29.9 °F 33.8 °F 93% 30.27 in 10.0 mi SSE 6.9 mph - N/A   Partly Cloudy
3:15 AM 35.6 °F 29.2 °F 33.8 °F 93% 30.27 in 10.0 mi SE 8.1 mph - N/A   Clear
3:35 AM 35.6 °F 29.9 °F 35.6 °F 100% 30.26 in 10.0 mi SE 6.9 mph - N/A   Partly Cloudy
3:55 AM 35.6 °F 29.2 °F 35.6 °F 100% 30.26 in 10.0 mi SE 8.1 mph - N/A   Mostly Cloudy
4:15 AM 35.6 °F 29.2 °F 35.6 °F 100% 30.26 in 10.0 mi SE 8.1 mph - N/A   Mostly Cloudy
4:35 AM 35.6 °F 28.6 °F 35.6 °F 100% 30.27 in 10.0 mi SSE 9.2 mph - N/A   Scattered Clouds
4:55 AM 35.6 °F 28.6 °F 35.6 °F 100% 30.25 in 10.0 mi SE 9.2 mph - N/A   Mostly Cloudy
5:15 AM 35.6 °F 28.0 °F 35.6 °F 100% 30.25 in 10.0 mi SSE 10.4 mph - N/A   Overcast
5:35 AM 35.6 °F 28.6 °F 35.6 °F 100% 30.25 in 10.0 mi SSE 9.2 mph - N/A   Overcast
5:55 AM 37.4 °F 30.8 °F 35.6 °F 93% 30.25 in 10.0 mi SE 9.2 mph - N/A   Overcast
6:15 AM 37.4 °F 29.3 °F 35.6 °F 93% 30.23 in 10.0 mi SE 12.7 mph - N/A   Overcast
6:35 AM 37.4 °F 30.3 °F 35.6 °F 93% 30.24 in 10.0 mi South 10.4 mph - N/A   Mostly Cloudy
6:55 AM 37.4 °F 31.4 °F 35.6 °F 93% 30.23 in 10.0 mi SE 8.1 mph - N/A   Scattered Clouds
7:15 AM 37.4 °F 31.4 °F 35.6 °F 93% 30.23 in 10.0 mi SSE 8.1 mph - N/A   Overcast
7:35 AM 37.4 °F 32.8 °F 35.6 °F 93% 30.25 in 10.0 mi South 5.8 mph - N/A   Overcast
7:55 AM 39.2 °F 35.0 °F 35.6 °F 87% 30.26 in 10.0 mi SE 5.8 mph - N/A   Overcast
8:15 AM 39.2 °F 35.0 °F 35.6 °F 87% 30.26 in 10.0 mi SSE 5.8 mph - N/A   Overcast
8:35 AM 39.2 °F 35.9 °F 35.6 °F 87% 30.27 in 10.0 mi SSE 4.6 mph - N/A   Overcast
8:55 AM 39.2 °F 35.9 °F 35.6 °F 87% 30.28 in 10.0 mi SE 4.6 mph - N/A   Overcast
9:15 AM 39.2 °F 33.0 °F 35.6 °F 87% 30.28 in 10.0 mi SE 9.2 mph - N/A   Overcast
9:35 AM 39.2 °F 33.0 °F 35.6 °F 87% 30.29 in 10.0 mi SSE 9.2 mph - N/A   Overcast
9:55 AM 39.2 °F 33.6 °F 35.6 °F 87% 30.29 in 4.0 mi SSE 8.1 mph - N/A   Overcast
10:15 AM 41.0 °F 35.8 °F 37.4 °F 87% 30.30 in 10.0 mi SSE 8.1 mph - N/A   Overcast
10:35 AM 41.0 °F 35.2 °F 37.4 °F 87% 30.30 in 10.0 mi SE 9.2 mph - N/A   Overcast
10:55 AM 42.8 °F 37.5 °F 37.4 °F 81% 30.29 in 10.0 mi SSE 9.2 mph - N/A   Overcast
11:15 AM 42.8 °F 37.5 °F 37.4 °F 81% 30.29 in 10.0 mi SSE 9.2 mph - N/A   Overcast
11:35 AM 44.6 °F 39.7 °F 39.2 °F 81% 30.28 in 10.0 mi SSE 9.2 mph - N/A   Overcast
11:55 AM 44.6 °F 39.7 °F 39.2 °F 81% 30.28 in 10.0 mi SSE 9.2 mph - N/A   Overcast
12:15 PM 44.6 °F 40.2 °F 39.2 °F 81% 30.27 in 10.0 mi SSE 8.1 mph - N/A   Overcast
12:35 PM 44.6 °F 40.2 °F 39.2 °F 81% 30.26 in 10.0 mi SSE 8.1 mph - N/A   Overcast
12:55 PM 44.6 °F 40.2 °F 39.2 °F 81% 30.25 in 10.0 mi SSE 8.1 mph - N/A   Overcast
1:15 PM 44.6 °F 40.2 °F 41.0 °F 87% 30.24 in 10.0 mi SSE 8.1 mph - N/A   Overcast
1:35 PM 46.4 °F 42.9 °F 41.0 °F 81% 30.23 in 10.0 mi SSE 6.9 mph - N/A   Overcast
1:55 PM 46.4 °F 43.5 °F 42.8 °F 87% 30.23 in 9.0 mi SSE 5.8 mph - N/A   Overcast
2:35 PM 46.4 °F 45.2 °F 42.8 °F 87% 30.24 in 9.0 mi South 3.5 mph - N/A   Overcast
2:55 PM 46.4 °F 42.9 °F 44.6 °F 93% 30.24 in 9.0 mi South 6.9 mph - N/A   Overcast
3:15 PM 44.6 °F 41.4 °F 44.6 °F 100% 30.25 in 6.0 mi SE 5.8 mph - N/A   Overcast
3:35 PM 44.6 °F 41.4 °F 44.6 °F 100% 30.25 in 9.0 mi ESE 5.8 mph - N/A   Overcast
3:55 PM 44.6 °F 41.4 °F 44.6 °F 100% 30.26 in 4.0 mi SE 5.8 mph - N/A   Overcast
4:15 PM 44.6 °F 42.2 °F 44.6 °F 100% 30.27 in 4.0 mi SSE 4.6 mph - 0.01 in   Overcast
4:35 PM 44.6 °F 41.4 °F 44.6 °F 100% 30.27 in 5.0 mi SSE 5.8 mph - 0.01 in   Overcast
5:15 PM 44.6 °F 40.7 °F 42.8 °F 93% 30.26 in 9.0 mi SSE 6.9 mph - N/A   Overcast
5:35 PM 44.6 °F 40.7 °F 42.8 °F 93% 30.27 in 10.0 mi SE 6.9 mph - N/A   Overcast
5:55 PM 44.6 °F 40.7 °F 42.8 °F 93% 30.27 in 8.0 mi ESE 6.9 mph - N/A   Overcast
6:15 PM 44.6 °F 42.2 °F 44.6 °F 100% 30.28 in 9.0 mi SE 4.6 mph - N/A   Overcast
6:35 PM 44.6 °F 41.4 °F 42.8 °F 93% 30.28 in 9.0 mi SE 5.8 mph - N/A   Overcast
7:15 PM 44.6 °F 42.2 °F 44.6 °F 100% 30.29 in 10.0 mi SE 4.6 mph - N/A   Overcast
7:35 PM 44.6 °F 40.7 °F 44.6 °F 100% 30.29 in 10.0 mi SSE 6.9 mph - N/A   Overcast
7:55 PM 44.6 °F 41.4 °F 44.6 °F 100% 30.29 in 10.0 mi SE 5.8 mph - N/A   Overcast
8:15 PM 44.6 °F 40.7 °F 44.6 °F 100% 30.29 in 10.0 mi SE 6.9 mph - N/A   Overcast
8:35 PM 42.8 °F 41.1 °F 42.8 °F 100% 30.30 in 10.0 mi SE 3.5 mph - N/A   Overcast
9:15 PM 42.8 °F 38.6 °F 41.0 °F 93% 30.31 in 10.0 mi SSE 6.9 mph - N/A   Overcast
9:35 PM 42.8 °F 39.3 °F 42.8 °F 100% 30.31 in 10.0 mi SE 5.8 mph - N/A   Mostly Cloudy
9:55 PM 41.0 °F 39.0 °F 41.0 °F 100% 30.33 in 10.0 mi ESE 3.5 mph - N/A   Scattered Clouds
10:15 PM 42.8 °F 38.6 °F 42.8 °F 100% 30.32 in 10.0 mi SE 6.9 mph - N/A   Mostly Cloudy
10:35 PM 41.0 °F 39.0 °F 41.0 °F 100% 30.33 in 10.0 mi East 3.5 mph - N/A   Overcast
10:55 PM 39.2 °F 37.0 °F 39.2 °F 100% 30.34 in 10.0 mi SE 3.5 mph - N/A   Overcast
11:15 PM 41.0 °F 39.0 °F 41.0 °F 100% 30.35 in 10.0 mi SE 3.5 mph - N/A   Overcast
11:35 PM 41.0 °F 39.0 °F 41.0 °F 100% 30.35 in 10.0 mi SSE 3.5 mph - N/A   Overcast
11:55 PM 39.2 °F 35.9 °F 39.2 °F 100% 30.34 in 10.0 mi SSE 4.6 mph - N/A   Mostly Cloudy